Météo par heure à Al Hufuf

Ce jour, 27 Octobre, Mardi

Heure Température Précipitation Vent Pression Humidité
00:00 +21°C° 0 mm 1 m/s 747 mmHg 83%
01:00 +20°C° 0 mm 1 m/s 747 mmHg 83%
02:00 +20°C° 0 mm 1 m/s 747 mmHg 83%
03:00 +20°C° 0 mm 1 m/s 747 mmHg 83%
04:00 +20°C° 0 mm 1 m/s 747 mmHg 78%
05:00 +20°C° 0 mm 2 m/s 748 mmHg 72%
06:00 +20°C° 0 mm 2 m/s 748 mmHg 67%
07:00 +24°C° 0 mm 2 m/s 748 mmHg 54%
08:00 +26°C° 0 mm 3 m/s 749 mmHg 42%
09:00 +29°C° 0 mm 3 m/s 749 mmHg 30%
10:00 +31°C° 0 mm 3 m/s 749 mmHg 25%
11:00 +34°C° 0 mm 4 m/s 748 mmHg 19%
12:00 +35°C° 0 mm 4 m/s 748 mmHg 14%
13:00 +35°C° 0 mm 4 m/s 747 mmHg 13%
14:00 +35°C° 0 mm 4 m/s 747 mmHg 13%
15:00 +36°C° 0 mm 4 m/s 746 mmHg 12%
16:00 +33°C° 0 mm 4 m/s 747 mmHg 21%
17:00 +29°C° 0 mm 4 m/s 747 mmHg 31%
18:00 +26°C° 0 mm 3 m/s 747 mmHg 40%
19:00 +25°C° 0 mm 3 m/s 747 mmHg 49%
20:00 +24°C° 0 mm 2 m/s 748 mmHg 59%
21:00 +23°C° 0 mm 2 m/s 748 mmHg 69%
22:00 +22°C° 0 mm 1 m/s 748 mmHg 73%
23:00 +21°C° 0 mm 1 m/s 748 mmHg 77%

Demain, 28 Octobre, Mercredi

Heure Température Précipitation Vent Pression Humidité
00:00 +18°C° 0 mm 0 m/s 748 mmHg 81%
01:00 +17°C° 0 mm 0 m/s 747 mmHg 81%
02:00 +17°C° 0 mm 0 m/s 747 mmHg 81%
03:00 +16°C° 0 mm 0 m/s 747 mmHg 81%
04:00 +19°C° 0 mm 1 m/s 747 mmHg 77%
05:00 +19°C° 0 mm 1 m/s 748 mmHg 73%
06:00 +19°C° 0 mm 1 m/s 748 mmHg 70%
07:00 +23°C° 0 mm 2 m/s 749 mmHg 54%
08:00 +26°C° 0 mm 2 m/s 749 mmHg 39%
09:00 +29°C° 0 mm 2 m/s 749 mmHg 24%
10:00 +31°C° 0 mm 2 m/s 749 mmHg 19%
11:00 +34°C° 0 mm 3 m/s 748 mmHg 15%
12:00 +35°C° 0 mm 3 m/s 748 mmHg 10%
13:00 +35°C° 0 mm 3 m/s 748 mmHg 10%
14:00 +35°C° 0 mm 4 m/s 747 mmHg 9%
15:00 +36°C° 0 mm 4 m/s 747 mmHg 9%
16:00 +33°C° 0 mm 4 m/s 747 mmHg 13%
17:00 +29°C° 0 mm 3 m/s 747 mmHg 17%
18:00 +26°C° 0 mm 3 m/s 747 mmHg 21%
19:00 +24°C° 0 mm 3 m/s 748 mmHg 30%
20:00 +23°C° 0 mm 2 m/s 748 mmHg 39%
21:00 +21°C° 0 mm 1 m/s 748 mmHg 48%
22:00 +21°C° 0 mm 1 m/s 748 mmHg 54%
23:00 +18°C° 0 mm 0 m/s 748 mmHg 61%

Après-demain, 29 Octobre, Jeudi

Heure Température Précipitation Vent Pression Humidité
00:00 +17°C° 0 mm 0 m/s 748 mmHg 67%
01:00 +17°C° 0 mm 0 m/s 748 mmHg 68%
02:00 +16°C° 0 mm 0 m/s 747 mmHg 68%
03:00 +16°C° 0 mm 0 m/s 747 mmHg 69%
04:00 +18°C° 0 mm 1 m/s 748 mmHg 69%
05:00 +18°C° 0 mm 1 m/s 748 mmHg 70%
06:00 +18°C° 0 mm 1 m/s 748 mmHg 70%
07:00 +21°C° 0 mm 1 m/s 749 mmHg 57%
08:00 +25°C° 0 mm 1 m/s 749 mmHg 44%
09:00 +28°C° 0 mm 1 m/s 749 mmHg 31%
10:00 +30°C° 0 mm 2 m/s 749 mmHg 25%
11:00 +31°C° 0 mm 2 m/s 749 mmHg 20%
12:00 +34°C° 0 mm 2 m/s 748 mmHg 15%
13:00 +34°C° 0 mm 2 m/s 748 mmHg 15%
14:00 +35°C° 0 mm 3 m/s 748 mmHg 15%
15:00 +35°C° 0 mm 3 m/s 747 mmHg 15%
16:00 +31°C° 0 mm 3 m/s 747 mmHg 23%
17:00 +29°C° 0 mm 3 m/s 747 mmHg 30%
18:00 +26°C° 0 mm 3 m/s 748 mmHg 38%
19:00 +25°C° 0 mm 3 m/s 748 mmHg 48%
20:00 +24°C° 0 mm 2 m/s 748 mmHg 58%
21:00 +23°C° 0 mm 2 m/s 748 mmHg 68%
22:00 +22°C° 0 mm 1 m/s 748 mmHg 73%
23:00 +21°C° 0 mm 1 m/s 748 mmHg 79%

30 Octobre, Vendredi

Heure Température Précipitation Vent Pression Humidité
00:00 +18°C° 0 mm 0 m/s 748 mmHg 84%
01:00 +18°C° 0 mm 0 m/s 748 mmHg 83%
02:00 +18°C° 0 mm 0 m/s 748 mmHg 83%
03:00 +20°C° 0 mm 1 m/s 747 mmHg 82%
04:00 +20°C° 0 mm 1 m/s 748 mmHg 80%
05:00 +20°C° 0 mm 1 m/s 748 mmHg 79%
06:00 +20°C° 0 mm 1 m/s 748 mmHg 77%
07:00 +23°C° 0 mm 1 m/s 749 mmHg 65%
08:00 +26°C° 0 mm 1 m/s 749 mmHg 52%
09:00 +27°C° 0 mm 0 m/s 750 mmHg 39%
10:00 +30°C° 0 mm 1 m/s 749 mmHg 33%
11:00 +32°C° 0 mm 1 m/s 749 mmHg 26%
12:00 +34°C° 0 mm 1 m/s 748 mmHg 19%
13:00 +34°C° 0 mm 1 m/s 748 mmHg 17%
14:00 +36°C° 0 mm 2 m/s 747 mmHg 16%
15:00 +36°C° 0 mm 2 m/s 747 mmHg 14%
16:00 +33°C° 0 mm 3 m/s 747 mmHg 19%
17:00 +30°C° 0 mm 3 m/s 747 mmHg 24%
18:00 +27°C° 0 mm 3 m/s 747 mmHg 28%
19:00 +25°C° 0 mm 3 m/s 748 mmHg 31%
20:00 +24°C° 0 mm 2 m/s 748 mmHg 34%
21:00 +23°C° 0 mm 1 m/s 748 mmHg 37%
22:00 +22°C° 0 mm 1 m/s 748 mmHg 42%
23:00 +21°C° 0 mm 1 m/s 748 mmHg 46%

31 Octobre, Samedi

Heure Température Précipitation Vent Pression Humidité
00:00 +21°C° 0 mm 1 m/s 748 mmHg 51%
01:00 +18°C° 0 mm 0 m/s 748 mmHg 51%
02:00 +18°C° 0 mm 0 m/s 748 mmHg 52%
03:00 +18°C° 0 mm 0 m/s 748 mmHg 53%
04:00 +17°C° 0 mm 0 m/s 748 mmHg 51%
05:00 +17°C° 0 mm 0 m/s 748 mmHg 49%
06:00 +19°C° 0 mm 1 m/s 748 mmHg 47%
07:00 +23°C° 0 mm 1 m/s 749 mmHg 38%
08:00 +27°C° 0 mm 1 m/s 749 mmHg 29%
09:00 +30°C° 0 mm 1 m/s 750 mmHg 20%
10:00 +32°C° 0 mm 1 m/s 749 mmHg 17%
11:00 +33°C° 0 mm 1 m/s 749 mmHg 15%
12:00 +33°C° 0 mm 0 m/s 748 mmHg 12%
13:00 +35°C° 0 mm 1 m/s 748 mmHg 11%
14:00 +35°C° 0 mm 1 m/s 748 mmHg 11%
15:00 +35°C° 0 mm 1 m/s 747 mmHg 10%
16:00 +32°C° 0 mm 2 m/s 747 mmHg 15%
17:00 +29°C° 0 mm 3 m/s 747 mmHg 20%
18:00 +27°C° 0 mm 4 m/s 748 mmHg 26%
19:00 +25°C° 0 mm 3 m/s 748 mmHg 33%
20:00 +24°C° 0 mm 2 m/s 748 mmHg 40%
21:00 +21°C° 0 mm 2 m/s 748 mmHg 47%
22:00 +22°C° 0 mm 1 m/s 748 mmHg 56%
23:00 +21°C° 0 mm 1 m/s 748 mmHg 65%

1 Novembre, Dimanche

Heure Température Précipitation Vent Pression Humidité
00:00 +20°C° 0 mm 1 m/s 748 mmHg 74%
01:00 +20°C° 0 mm 1 m/s 748 mmHg 74%
02:00 +20°C° 0 mm 1 m/s 748 mmHg 74%
03:00 +19°C° 0 mm 1 m/s 748 mmHg 73%
04:00 +20°C° 0 mm 1 m/s 748 mmHg 70%
05:00 +20°C° 0 mm 1 m/s 749 mmHg 68%
06:00 +19°C° 0 mm 2 m/s 749 mmHg 65%
07:00 +23°C° 0 mm 1 m/s 749 mmHg 52%
08:00 +26°C° 0 mm 1 m/s 750 mmHg 40%
09:00 +29°C° 0 mm 1 m/s 750 mmHg 27%
10:00 +31°C° 0 mm 1 m/s 750 mmHg 23%
11:00 +32°C° 0 mm 1 m/s 750 mmHg 18%
12:00 +34°C° 0 mm 1 m/s 750 mmHg 13%
13:00 +35°C° 0 mm 2 m/s 749 mmHg 12%
14:00 +35°C° 0 mm 2 m/s 749 mmHg 11%
15:00 +36°C° 0 mm 2 m/s 748 mmHg 11%
16:00 +33°C° 0 mm 3 m/s 749 mmHg 16%
17:00 +29°C° 0 mm 3 m/s 749 mmHg 21%
18:00 +26°C° 0 mm 4 m/s 749 mmHg 26%
19:00 +25°C° 0 mm 3 m/s 749 mmHg 33%
20:00 +24°C° 0 mm 3 m/s 749 mmHg 39%
21:00 +22°C° 0 mm 3 m/s 749 mmHg 46%
22:00 +21°C° 0 mm 2 m/s 749 mmHg 58%
23:00 +20°C° 0 mm 2 m/s 749 mmHg 69%
Voir plus

Nous avons besoin de votre consentement

Meteoprog et ses fournisseurs de services peuvent stocker et accéder à des données personnelles telles que des cookies, des identifiants d'appareils ou d'autres technologies similaires sur votre appareil et traiter ces données pour personnaliser le contenu et les publicités, ainsi que pour fournir des fonctionnalités de médias sociaux et analyser le trafic.

  • Stocker et/ou accéder à des informations sur votre appareil

    Des cookies, des identifiants d'appareils ou d'autres informations peuvent être stockés ou accessibles sur votre appareil aux fins indiquées ci-dessus.

  • Annonces et contenus personnalisés, mesure des annonces et des contenus, connaissance de l'audience et développement de produits

    Les annonces et le contenu peuvent être personnalisés en fonction d'un profil. D'autres données peuvent être ajoutées pour mieux personnaliser les annonces et le contenu. Les performances des publicités et du contenu peuvent être mesurées. Il est possible d'obtenir des informations sur le public qui a vu les publicités et le contenu. Ces données peuvent être utilisées pour développer ou améliorer l'expérience de l'utilisateur, les systèmes et les logiciels.

En cliquant sur "J'accepte", vous autorisez l'utilisation de cookies, des identifiants d'appareils, des balises web ou d'autres technologies similaires. Vos paramètres peuvent être modifiés dans le navigateur de votre appareil.

Dans certains cas, des intérêts légitimes peuvent être invoqués plutôt qu'un consentement. Vous pouvez en savoir plus à ce sujet dans notre Politique de confidentialité et de cookies.